VA862 YSSY-YMML

Flight info

Callsign VA862
Flight time N/A
Altitude 32000
Route WOL H65 LEECE Q29 ML
Aircraft B38M/M-SDE1FGHILORVWXY/HB1

Departure

Time 2026-05-05 10:21
Airport Sydney Kingsford Smith International Airport (YSSY)

Arrival

Time N/A
Airport Melbourne Airport (YMML)
Time Latitude Longitude Altitude Speed Heading
2026-05-05 09:50 -33.93510 151.18005 32 ft 0 kts 288°
2026-05-05 10:09 -33.93514 151.18018 33 ft 4 kts 295°
2026-05-05 10:09 -33.93528 151.18045 33 ft 4 kts 307°
2026-05-05 10:09 -33.93538 151.18067 33 ft 4 kts 254°
2026-05-05 10:09 -33.93545 151.18065 33 ft 0 kts 190°
2026-05-05 10:13 -33.93547 151.18065 33 ft 1 kts 190°
2026-05-05 10:13 -33.93582 151.18057 33 ft 10 kts 190°
2026-05-05 10:14 -33.93665 151.18050 33 ft 13 kts 181°
2026-05-05 10:14 -33.93721 151.18062 33 ft 9 kts 168°
2026-05-05 10:14 -33.93777 151.18042 33 ft 9 kts 252°
2026-05-05 10:14 -33.93795 151.17961 33 ft 11 kts 255°
2026-05-05 10:15 -33.93818 151.17864 32 ft 13 kts 253°
2026-05-05 10:15 -33.93845 151.17749 32 ft 15 kts 254°
2026-05-05 10:15 -33.93859 151.17620 31 ft 17 kts 300°
2026-05-05 10:15 -33.93749 151.17572 31 ft 18 kts 348°
2026-05-05 10:16 -33.93619 151.17538 31 ft 20 kts 348°
2026-05-05 10:16 -33.93478 151.17503 32 ft 21 kts 354°
2026-05-05 10:16 -33.93327 151.17491 32 ft 22 kts 347°
2026-05-05 10:16 -33.93199 151.17457 32 ft 20 kts 348°
2026-05-05 10:17 -33.93062 151.17421 33 ft 14 kts 347°
2026-05-05 10:17 -33.92998 151.17403 33 ft 10 kts 342°
2026-05-05 10:17 -33.92962 151.17332 33 ft 11 kts 281°
2026-05-05 10:17 -33.92959 151.17314 33 ft 0 kts 281°
2026-05-05 10:19 -33.92957 151.17299 33 ft 3 kts 281°
2026-05-05 10:19 -33.92952 151.17265 33 ft 5 kts 277°
2026-05-05 10:19 -33.92962 151.17204 33 ft 11 kts 242°
2026-05-05 10:19 -33.93036 151.17186 33 ft 0 kts 168°
2026-05-05 10:20 -33.93040 151.17187 33 ft 9 kts 168°
2026-05-05 10:20 -33.93385 151.17276 30 ft 91 kts 168°
2026-05-05 10:20 -33.94237 151.17491 33 ft 156 kts 169°
2026-05-05 10:20 -33.95380 151.17814 521 ft 174 kts 166°
2026-05-05 10:21 -33.96578 151.18132 1452 ft 165 kts 174°
2026-05-05 10:21 -33.97740 151.18167 2285 ft 178 kts 185°
2026-05-05 10:21 -33.99043 151.17989 2860 ft 199 kts 186°
2026-05-05 10:21 -34.00523 151.17790 3405 ft 228 kts 185°
2026-05-05 10:22 -34.02163 151.17591 4182 ft 245 kts 181°
2026-05-05 10:22 -34.03885 151.17951 5073 ft 255 kts 164°
2026-05-05 10:22 -34.05611 151.18518 6114 ft 262 kts 167°
2026-05-05 10:22 -34.07413 151.19099 6972 ft 274 kts 167°
2026-05-05 10:23 -34.09266 151.19707 7940 ft 278 kts 167°
2026-05-05 10:23 -34.11150 151.20330 8881 ft 284 kts 167°
2026-05-05 10:23 -34.13069 151.20968 9870 ft 288 kts 167°
2026-05-05 10:23 -34.15027 151.21619 10642 ft 299 kts 167°
2026-05-05 10:24 -34.17091 151.22280 11239 ft 312 kts 172°
2026-05-05 10:24 -34.19249 151.22238 12020 ft 312 kts 196°
2026-05-05 10:24 -34.21220 151.21176 12834 ft 314 kts 217°
2026-05-05 10:24 -34.22802 151.19347 13700 ft 315 kts 229°
2026-05-05 10:25 -34.24286 151.17365 14433 ft 321 kts 229°
2026-05-05 10:25 -34.25775 151.15337 15187 ft 324 kts 230°
2026-05-05 10:25 -34.27237 151.13312 15911 ft 328 kts 230°
2026-05-05 10:25 -34.28736 151.11219 16641 ft 331 kts 231°
2026-05-05 10:26 -34.30227 151.09125 17368 ft 334 kts 231°
2026-05-05 10:26 -34.31748 151.06984 18077 ft 337 kts 231°
2026-05-05 10:26 -34.33304 151.04792 18755 ft 340 kts 231°
2026-05-05 10:26 -34.34832 151.02637 19337 ft 344 kts 231°
2026-05-05 10:27 -34.36398 151.00426 19918 ft 347 kts 231°
2026-05-05 10:27 -34.38122 150.98321 20266 ft 360 kts 222°
2026-05-05 10:27 -34.40056 150.96302 20516 ft 372 kts 224°
2026-05-05 10:27 -34.41994 150.94222 21146 ft 373 kts 224°
2026-05-05 10:28 -34.43937 150.92112 21648 ft 378 kts 224°
2026-05-05 10:28 -34.45898 150.89970 22196 ft 381 kts 225°
2026-05-05 10:28 -34.47869 150.87807 22727 ft 384 kts 225°
2026-05-05 10:28 -34.49864 150.85615 23269 ft 388 kts 225°
2026-05-05 10:29 -34.51872 150.83406 23811 ft 390 kts 225°
2026-05-05 10:29 -34.53891 150.81183 24239 ft 393 kts 225°
2026-05-05 10:29 -34.55853 150.78920 24668 ft 394 kts 232°
2026-05-05 10:29 -34.57506 150.76228 25106 ft 394 kts 237°
2026-05-05 10:30 -34.59123 150.73571 25519 ft 397 kts 236°
2026-05-05 10:30 -34.60763 150.70864 25945 ft 399 kts 237°
2026-05-05 10:30 -34.62411 150.68133 26367 ft 402 kts 237°
2026-05-05 10:30 -34.64064 150.65391 26787 ft 404 kts 237°
2026-05-05 10:31 -34.65730 150.62623 27209 ft 406 kts 237°
2026-05-05 10:31 -34.67402 150.59844 27623 ft 409 kts 237°
2026-05-05 10:31 -34.69087 150.57038 28015 ft 411 kts 237°
2026-05-05 10:31 -34.70777 150.54225 28422 ft 413 kts 237°
2026-05-05 10:32 -34.72476 150.51393 28818 ft 416 kts 237°
2026-05-05 10:32 -34.74184 150.48543 29197 ft 418 kts 237°
2026-05-05 10:32 -34.75902 150.45676 29570 ft 420 kts 237°
2026-05-05 10:32 -34.77630 150.42790 29914 ft 423 kts 237°
2026-05-05 10:33 -34.79365 150.39887 30259 ft 426 kts 237°
2026-05-05 10:33 -34.81113 150.36962 30571 ft 428 kts 237°
2026-05-05 10:33 -34.82863 150.34031 30954 ft 428 kts 238°
2026-05-05 10:33 -34.84606 150.31110 31380 ft 426 kts 238°
2026-05-05 10:34 -34.86323 150.28228 31806 ft 425 kts 238°
2026-05-05 10:34 -34.88054 150.25322 32180 ft 425 kts 238°
2026-05-05 10:34 -34.91533 150.19476 32244 ft 421 kts 238°
2026-05-05 10:35 -34.94949 150.13725 32253 ft 421 kts 238°
2026-05-05 10:35 -34.98385 150.07930 32261 ft 422 kts 238°
2026-05-05 10:36 -35.01818 150.02131 32265 ft 422 kts 238°
2026-05-05 10:36 -35.05252 149.96320 32260 ft 422 kts 238°
2026-05-05 10:37 -35.08679 149.90509 32261 ft 422 kts 238°
2026-05-05 10:37 -35.12098 149.84704 32269 ft 422 kts 238°
2026-05-05 10:38 -35.15519 149.78886 32265 ft 421 kts 238°
2026-05-05 10:38 -35.18941 149.73058 32258 ft 421 kts 238°
2026-05-05 10:39 -35.22304 149.67319 32259 ft 421 kts 238°
2026-05-05 10:39 -35.25715 149.61490 32258 ft 421 kts 238°
2026-05-05 10:40 -35.29123 149.55656 32261 ft 421 kts 238°
2026-05-05 10:40 -35.32520 149.49831 32254 ft 420 kts 238°
2026-05-05 10:41 -35.35917 149.43995 32245 ft 420 kts 238°
2026-05-05 10:41 -35.39311 149.38157 32243 ft 420 kts 238°
2026-05-05 10:42 -35.44389 149.29402 32250 ft 419 kts 238°
2026-05-05 10:43 -35.47758 149.23581 32241 ft 418 kts 238°
2026-05-05 10:43 -35.51122 149.17759 32252 ft 419 kts 238°
2026-05-05 10:44 -35.54485 149.11930 32251 ft 418 kts 238°
2026-05-05 10:44 -35.57826 149.06130 32271 ft 418 kts 238°
2026-05-05 10:45 -35.61176 149.00303 32268 ft 417 kts 238°
2026-05-05 10:45 -35.64525 148.94468 32267 ft 418 kts 238°
2026-05-05 10:46 -35.67328 148.89577 32271 ft 417 kts 238°
2026-05-05 10:46 -35.70647 148.83777 32276 ft 418 kts 238°
2026-05-05 10:47 -35.73991 148.77924 32278 ft 418 kts 237°
2026-05-05 10:47 -35.77335 148.72060 32270 ft 418 kts 237°
2026-05-05 10:48 -35.80676 148.66192 32279 ft 418 kts 237°
2026-05-05 10:48 -35.84010 148.60330 32272 ft 418 kts 237°
2026-05-05 10:49 -35.87345 148.54456 32287 ft 419 kts 237°
2026-05-05 10:49 -35.90679 148.48540 32273 ft 420 kts 237°
2026-05-05 10:50 -35.94010 148.42628 32277 ft 420 kts 237°
2026-05-05 10:50 -35.97340 148.36707 32279 ft 419 kts 237°
2026-05-05 10:51 -36.00665 148.30786 32284 ft 420 kts 236°
2026-05-05 10:51 -36.03994 148.24846 32273 ft 421 kts 236°
2026-05-05 10:52 -36.07303 148.18931 32274 ft 421 kts 236°
2026-05-05 10:52 -36.10633 148.12970 32271 ft 422 kts 236°
2026-05-05 10:53 -36.13973 148.07000 32274 ft 422 kts 236°
2026-05-05 10:53 -36.17307 148.01035 32272 ft 421 kts 236°
2026-05-05 10:54 -36.20642 147.95057 32278 ft 422 kts 236°
2026-05-05 10:54 -36.23969 147.89083 32270 ft 421 kts 236°
2026-05-05 10:55 -36.27295 147.83101 32278 ft 422 kts 236°
2026-05-05 10:55 -36.30648 147.77060 32273 ft 427 kts 236°
2026-05-05 10:56 -36.34007 147.70989 32276 ft 426 kts 236°
2026-05-05 10:56 -36.37357 147.64919 32263 ft 426 kts 236°
2026-05-05 10:57 -36.40711 147.58830 32275 ft 427 kts 236°
2026-05-05 10:57 -36.44037 147.52780 32265 ft 427 kts 236°
2026-05-05 10:58 -36.47379 147.46692 32263 ft 427 kts 236°
2026-05-05 10:58 -36.50720 147.40595 32262 ft 427 kts 236°
2026-05-05 10:59 -36.54057 147.34493 32269 ft 427 kts 236°
2026-05-05 10:59 -36.57382 147.28402 32263 ft 426 kts 236°
2026-05-05 11:00 -36.60714 147.22288 32264 ft 426 kts 236°
2026-05-05 11:00 -36.64037 147.16180 32265 ft 426 kts 236°
2026-05-05 11:01 -36.67356 147.10068 32264 ft 426 kts 236°
2026-05-05 11:01 -36.70649 147.03992 32262 ft 426 kts 236°
2026-05-05 11:02 -36.73959 146.97873 32261 ft 426 kts 236°
2026-05-05 11:02 -36.77268 146.91745 32265 ft 426 kts 236°
2026-05-05 11:02 -36.78909 146.88703 32250 ft 415 kts 236°
2026-05-05 11:03 -36.80498 146.85754 32079 ft 404 kts 236°
2026-05-05 11:03 -36.82054 146.82864 31646 ft 400 kts 236°
2026-05-05 11:03 -36.83603 146.79985 31130 ft 398 kts 236°
2026-05-05 11:03 -36.85144 146.77116 30667 ft 396 kts 236°
2026-05-05 11:04 -36.86676 146.74264 30181 ft 394 kts 236°
2026-05-05 11:04 -36.88200 146.71422 29657 ft 392 kts 236°
2026-05-05 11:04 -36.89689 146.68645 29208 ft 388 kts 236°
2026-05-05 11:04 -36.91189 146.65846 28768 ft 385 kts 236°
2026-05-05 11:05 -36.92668 146.63080 28344 ft 381 kts 236°
2026-05-05 11:05 -36.94132 146.60342 27922 ft 378 kts 236°
2026-05-05 11:05 -36.95585 146.57623 27497 ft 375 kts 236°
2026-05-05 11:05 -36.97026 146.54925 27096 ft 371 kts 235°
2026-05-05 11:06 -36.98454 146.52247 26693 ft 369 kts 235°
2026-05-05 11:06 -36.99870 146.49591 26290 ft 366 kts 235°
2026-05-05 11:06 -37.01276 146.46952 25906 ft 363 kts 235°
2026-05-05 11:06 -37.02672 146.44328 25517 ft 361 kts 235°
2026-05-05 11:07 -37.04060 146.41719 25143 ft 359 kts 235°
2026-05-05 11:07 -37.05441 146.39121 24769 ft 357 kts 235°
2026-05-05 11:07 -37.06811 146.36541 24405 ft 355 kts 235°
2026-05-05 11:07 -37.08174 146.33971 24008 ft 354 kts 235°
2026-05-05 11:08 -37.09534 146.31405 23563 ft 353 kts 235°
2026-05-05 11:08 -37.10887 146.28850 23184 ft 350 kts 235°
2026-05-05 11:08 -37.12224 146.26324 22828 ft 346 kts 235°
2026-05-05 11:08 -37.13548 146.23820 22480 ft 343 kts 236°
2026-05-05 11:09 -37.14859 146.21339 22133 ft 339 kts 236°
2026-05-05 11:09 -37.16156 146.18884 21786 ft 336 kts 236°
2026-05-05 11:09 -37.17440 146.16452 21442 ft 333 kts 236°
2026-05-05 11:09 -37.18712 146.14039 21111 ft 330 kts 236°
2026-05-05 11:10 -37.19972 146.11648 20777 ft 327 kts 236°
2026-05-05 11:10 -37.21224 146.09270 20442 ft 325 kts 236°
2026-05-05 11:10 -37.22464 146.06914 20109 ft 322 kts 236°
2026-05-05 11:10 -37.23678 146.04606 19788 ft 320 kts 236°
2026-05-05 11:11 -37.24914 146.02254 19458 ft 318 kts 236°
2026-05-05 11:11 -37.26110 145.99976 19140 ft 315 kts 237°
2026-05-05 11:11 -37.27315 145.97681 18823 ft 315 kts 237°
2026-05-05 11:11 -37.28528 145.95368 18485 ft 320 kts 237°
2026-05-05 11:12 -37.29759 145.93021 18113 ft 322 kts 237°
2026-05-05 11:12 -37.30996 145.90665 17737 ft 323 kts 237°
2026-05-05 11:12 -37.32227 145.88322 17409 ft 320 kts 237°
2026-05-05 11:12 -37.33447 145.85999 17098 ft 316 kts 237°
2026-05-05 11:13 -37.34653 145.83702 16779 ft 313 kts 237°
2026-05-05 11:13 -37.35844 145.81430 16472 ft 310 kts 237°
2026-05-05 11:13 -37.37023 145.79180 16153 ft 307 kts 237°
2026-05-05 11:13 -37.38193 145.76944 15837 ft 305 kts 237°
2026-05-05 11:14 -37.39354 145.74727 15521 ft 302 kts 237°
2026-05-05 11:14 -37.40504 145.72527 15214 ft 300 kts 237°
2026-05-05 11:14 -37.41648 145.70339 14913 ft 298 kts 237°
2026-05-05 11:14 -37.42782 145.68167 14602 ft 296 kts 237°
2026-05-05 11:15 -37.43892 145.66041 14303 ft 294 kts 237°
2026-05-05 11:15 -37.45013 145.63895 13991 ft 295 kts 237°
2026-05-05 11:15 -37.46154 145.61726 13618 ft 299 kts 237°
2026-05-05 11:15 -37.47308 145.59529 13305 ft 301 kts 237°
2026-05-05 11:16 -37.48457 145.57339 12999 ft 299 kts 237°
2026-05-05 11:16 -37.49598 145.55164 12692 ft 296 kts 237°
2026-05-05 11:16 -37.50728 145.53008 12386 ft 293 kts 237°
2026-05-05 11:16 -37.51844 145.50876 12081 ft 290 kts 236°
2026-05-05 11:17 -37.52952 145.48760 11780 ft 288 kts 236°
2026-05-05 11:17 -37.54050 145.46661 11483 ft 286 kts 236°
2026-05-05 11:17 -37.55142 145.44571 11174 ft 284 kts 237°
2026-05-05 11:17 -37.56226 145.42496 10857 ft 283 kts 237°
2026-05-05 11:18 -37.57306 145.40429 10578 ft 280 kts 237°
2026-05-05 11:18 -37.58362 145.38406 10415 ft 273 kts 236°
2026-05-05 11:18 -37.59396 145.36422 10183 ft 269 kts 236°
2026-05-05 11:18 -37.60420 145.34459 9865 ft 268 kts 236°
2026-05-05 11:19 -37.61440 145.32500 9527 ft 267 kts 237°
2026-05-05 11:19 -37.62455 145.30550 9246 ft 264 kts 237°
2026-05-05 11:19 -37.63447 145.28644 9103 ft 256 kts 237°
2026-05-05 11:19 -37.64388 145.26775 8901 ft 250 kts 243°
2026-05-05 11:20 -37.64840 145.24655 8420 ft 252 kts 262°
2026-05-05 11:20 -37.65079 145.22464 7918 ft 252 kts 261°
2026-05-05 11:20 -37.65321 145.20276 7437 ft 252 kts 262°
2026-05-05 11:20 -37.65556 145.18090 6957 ft 252 kts 262°
2026-05-05 11:21 -37.65788 145.15902 6465 ft 252 kts 262°
2026-05-05 11:21 -37.66017 145.13705 5899 ft 253 kts 262°
2026-05-05 11:21 -37.66244 145.11505 5397 ft 252 kts 262°
2026-05-05 11:21 -37.66467 145.09342 4927 ft 250 kts 262°
2026-05-05 11:22 -37.66689 145.07179 4504 ft 246 kts 262°
2026-05-05 11:22 -37.66905 145.05064 4091 ft 241 kts 263°
2026-05-05 11:22 -37.67136 145.02991 3742 ft 235 kts 264°
2026-05-05 11:22 -37.67172 145.00958 3379 ft 230 kts 273°
2026-05-05 11:23 -37.67052 144.98964 2998 ft 226 kts 275°
2026-05-05 11:23 -37.66931 144.96998 2632 ft 225 kts 274°
2026-05-05 11:23 -37.66812 144.94929 2246 ft 238 kts 274°
2026-05-05 11:23 -37.66778 144.92958 2361 ft 214 kts 265°
2026-05-05 11:24 -37.67130 144.91146 2027 ft 213 kts 246°
2026-05-05 11:24 -37.67779 144.89577 2009 ft 193 kts 242°
2026-05-05 11:24 -37.68403 144.88060 2007 ft 200 kts 244°
2026-05-05 11:24 -37.69055 144.86477 2364 ft 205 kts 242°
2026-05-05 11:25 -37.69960 144.85040 2922 ft 211 kts 214°
2026-05-05 11:25 -37.71344 144.84445 3501 ft 215 kts 186°
2026-05-05 11:25 -37.72848 144.84384 3909 ft 221 kts 182°
2026-05-05 11:25 -37.74404 144.84362 3996 ft 221 kts 182°
2026-05-05 11:26 -37.75937 144.84360 4001 ft 220 kts 182°
2026-05-05 11:26 -37.77440 144.84542 3971 ft 221 kts 162°
2026-05-05 11:26 -37.78701 144.85660 3944 ft 223 kts 127°
2026-05-05 11:26 -37.79278 144.87444 3971 ft 226 kts 98°
2026-05-05 11:27 -37.79381 144.89435 4012 ft 228 kts 92°
2026-05-05 11:27 -37.79430 144.91443 4002 ft 229 kts 92°
2026-05-05 11:27 -37.79476 144.93452 3993 ft 228 kts 92°
2026-05-05 11:27 -37.79522 144.95456 3993 ft 228 kts 92°
2026-05-05 11:28 -37.79569 144.97465 3992 ft 228 kts 92°
2026-05-05 11:28 -37.79616 144.99470 3986 ft 228 kts 92°
2026-05-05 11:28 -37.79662 145.01476 3983 ft 228 kts 92°
2026-05-05 11:28 -37.79709 145.03480 3993 ft 228 kts 92°
2026-05-05 11:29 -37.79754 145.05480 3984 ft 227 kts 92°
2026-05-05 11:29 -37.79799 145.07476 3982 ft 227 kts 92°
2026-05-05 11:29 -37.79845 145.09473 3983 ft 227 kts 92°
2026-05-05 11:29 -37.79892 145.11472 3978 ft 227 kts 91°
2026-05-05 11:30 -37.79607 145.13408 3944 ft 225 kts 61°
2026-05-05 11:30 -37.78572 145.14821 3979 ft 215 kts 27°
2026-05-05 11:30 -37.77221 145.15312 4019 ft 193 kts
2026-05-05 11:30 -37.76364 145.15304 3971 ft 182 kts 346°
2026-05-05 11:31 -37.74929 145.14346 3977 ft 175 kts 322°
2026-05-05 11:31 -37.74288 145.13762 4278 ft 167 kts 322°
2026-05-05 11:31 -37.73320 145.12872 4186 ft 182 kts 322°
2026-05-05 11:31 -37.71577 145.11240 2437 ft 243 kts 322°
2026-05-05 11:32 -37.70745 145.10468 2906 ft 205 kts 322°
2026-05-05 11:32 -37.69637 145.09455 2848 ft 192 kts 322°
2026-05-05 11:32 -37.68568 145.08480 2555 ft 190 kts 322°
2026-05-05 11:32 -37.67736 145.07314 2488 ft 172 kts 294°
2026-05-05 11:33 -37.67449 145.05890 2448 ft 168 kts 276°
2026-05-05 11:33 -37.67345 145.04425 2493 ft 168 kts 274°
2026-05-05 11:33 -37.67269 145.02947 2486 ft 169 kts 274°
2026-05-05 11:33 -37.67192 145.01473 2474 ft 168 kts 274°
2026-05-05 11:34 -37.67108 144.99997 2475 ft 168 kts 274°
2026-05-05 11:34 -37.67026 144.98532 2491 ft 168 kts 273°
2026-05-05 11:34 -37.66956 144.97088 2427 ft 162 kts 273°
2026-05-05 11:34 -37.66890 144.95678 2176 ft 157 kts 274°
2026-05-05 11:35 -37.66810 144.94338 1917 ft 150 kts 274°
2026-05-05 11:35 -37.66745 144.93039 1634 ft 148 kts 274°
2026-05-05 11:35 -37.66677 144.91748 1441 ft 148 kts 275°
2026-05-05 11:35 -37.66579 144.90455 1227 ft 148 kts 277°